GW0543 Weather Reports


time (UTC)temp
C
wind
direction
speed
KPH
gust
KPH
rain 1hr
cm
rain 24hr
cm
rain mn
cm
humidity
%
barometer
mb
20260507191553 15 0 0.0 3.2 0.00 0.08 0.00 74 1013.4
20260507190108 15 0 0.0 4.8 0.00 0.08 0.00 72 1013.4
20260507184557 16 0 0.0 4.8 0.00 0.36 0.00 70 1013.3
20260507183115 16 151 0.0 3.2 0.00 0.36 0.00 68 1013.1
20260507181559 17 151 0.0 4.8 0.00 0.36 0.00 65 1012.9
20260507180056 17 172 3.2 12.9 0.00 0.36 0.00 62 1012.9
20260507174601 18 147 4.8 11.3 0.00 0.56 0.00 59 1012.8
20260507173103 20 0 1.6 11.3 0.00 0.56 0.00 57 1012.7
20260507171552 19 237 3.2 12.9 0.00 0.56 0.00 59 1012.7
20260507170056 19 0 4.8 14.5 0.00 0.56 0.00 59 1012.8
20260507164629 20 183 4.8 11.3 0.00 0.61 0.00 58 1012.7
20260507163058 20 244 3.2 9.7 0.00 0.61 0.00 58 1012.8
20260507161558 20 0 3.2 8.0 0.00 0.61 0.00 58 1012.8
20260507160056 18 286 3.2 6.4 0.00 0.61 0.00 60 1012.9
20260507154557 18 0 1.6 8.0 0.00 0.84 0.00 59 1013.0
20260507153056 19 244 4.8 11.3 0.00 0.84 0.00 58 1013.0
20260507151554 18 249 4.8 11.3 0.00 0.84 0.00 59 1013.1
20260507150053 18 196 4.8 19.3 0.00 0.84 0.00 60 1013.4
20260507144602 18 211 6.4 16.1 0.00 1.96 0.00 61 1013.2
20260507143100 18 219 4.8 16.1 0.00 1.96 0.00 60 1013.2
20260507141604 19 219 3.2 11.3 0.00 1.96 0.00 58 1013.2
20260507140051 20 168 4.8 14.5 0.00 1.96 0.00 58 1013.3
20260507134552 20 204 6.4 9.7 0.00 2.06 0.00 1013.4
20260507133053 21 146 6.4 16.1 0.00 2.06 0.00 58 1013.3
20260507131602 21 154 8.0 22.5 0.00 2.06 0.00 61 1013.3
20260507130058 20 9.7 9.7 0.00 2.06 0.00 64 1013.5
20260507124602 20 232 3.2 22.5 0.00 2.06 0.00 64 1013.4
20260507123053 20 130 3.2 9.7 0.00 2.06 0.00 63 1013.3
20260507121556 20 155 3.2 12.9 0.00 2.06 0.00 62 1013.4
20260507120057 20 146 3.2 16.1 0.00 2.06 0.00 63 1013.5
20260507114607 21 240 3.2 14.5 0.00 2.06 0.00 60 1013.6
20260507113124 20 144 3.2 9.7 0.00 2.06 0.00 64 1013.8
20260507111559 20 228 3.2 8.0 0.00 2.06 0.00 61 1013.9
20260507110056 20 183 1.6 14.5 0.00 2.06 0.00 62 1014.0
20260507104556 19 166 1.6 9.7 0.00 2.06 0.00 64 1014.2
20260507103056 18 182 3.2 14.5 0.00 2.06 0.00 67 1014.3
20260507101557 18 209 4.8 14.5 0.00 2.06 0.00 68 1014.5
20260507100106 18 208 4.8 9.7 0.00 2.06 0.00 65 1014.4
20260507094602 17 175 0.0 9.7 0.00 2.06 0.00 69 1014.4
20260507093055 17 252 3.2 11.3 0.00 2.06 0.00 69 1014.4
20260507091601 17 214 3.2 11.3 0.00 2.06 0.00 71 1014.5
20260507090053 16 205 3.2 8.0 0.00 2.06 0.00 72 1014.5
20260507084604 17 0 1.6 9.7 0.00 2.06 0.00 71 1014.6
20260507083053 16 268 1.6 11.3 0.00 2.06 0.00 73 1014.7
20260507081558 16 0 1.6 8.0 0.00 2.06 0.00 71 1014.8
20260507080055 15 241 1.6 4.8 0.00 2.06 0.00 74 1014.7
20260507074558 15 212 1.6 4.8 0.00 2.06 0.00 75 1014.6
20260507073057 15 0 0.0 3.2 0.00 2.06 0.00 76 1014.7
20260507071554 14 0 1.6 8.0 0.00 2.06 0.00 80 1014.7
20260507070104 13 58 0.0 9.7 0.00 2.06 0.00 80 1014.7
20260507064555 13 80 1.6 8.0 0.00 2.06 0.00 82 1014.5
20260507063056 -17 0.0 0.0 0.00 2.06 0.00 1014.4
20260507061554 11 0 1.6 4.8 0.00 2.06 0.00 94 1014.2
20260507060105 11 0 0.0 4.8 0.00 2.06 0.00 96 1014.2
20260507054558 10 147 1.6 4.8 0.00 2.06 0.00 96 1014.0
20260507053059 9 0 0.0 3.2 0.00 2.06 0.00 95 1014.2
20260507051555 9 0 0.0 0.0 0.00 2.06 0.00 95 1014.2
20260507044610 8 0 0.0 1.6 0.00 2.06 0.00 95 1014.0
20260507043104 9 0 0.0 4.8 0.00 2.06 0.00 95 1013.9
20260507041601 9 0 0.0 0.0 0.00 2.06 0.00 94 1014.0
20260507040058 9 0 0.0 1.6 0.00 2.06 0.00 94 1013.9
20260507034555 9 0 0.0 1.6 0.00 2.06 0.00 94 1013.8
20260507033056 -17 0.0 0.0 0.00 2.06 0.00 1013.8
20260507031554 -17 0.0 0.0 0.00 2.06 0.00 1013.9
20260507030052 -17 0.0 0.0 0.00 2.06 0.00 1013.7
20260507024556 -17 0.0 0.0 0.00 2.06 0.00 1013.9
20260507023108 -17 0.0 0.0 0.00 2.06 0.00 1014.0
20260507021554 -17 0.0 0.0 0.00 2.06 0.00 1013.8
20260507014557 -17 0.0 0.0 0.00 2.06 0.00 1013.8
20260507013051 -17 0.0 0.0 0.00 2.06 0.00 1014.0
20260507011552 -17 0.0 0.0 0.00 2.06 0.00 1014.2
20260507010054 11 51 3.2 4.8 0.00 2.06 0.00 95 1014.3
20260507004555 11 51 1.6 6.4 0.00 2.06 0.00 95 1014.4
20260507003114 11 57 1.6 3.2 0.00 2.06 0.00 95 1014.6
20260507001613 11 57 1.6 4.8 0.00 2.06 0.00 95 1014.6
20260507000056 11 63 0.0 3.2 0.00 2.03 0.00 95 1014.8
20260506234556 11 0 0.0 1.6 0.00 2.03 0.00 95 1014.8
20260506233055 11 0 0.0 0.0 0.00 2.03 0.00 95 1014.9
20260506231605 11 44 1.6 4.8 0.00 2.03 0.00 95 1014.9
20260506230115 11 0 1.6 4.8 0.00 2.03 0.00 95 1014.9
20260506224552 11 0 0.0 0.0 0.00 2.03 0.00 95 1015.0
20260506223100 11 0 0.0 0.0 0.00 2.03 0.00 95 1014.9
20260506221605 12 0 0.0 1.6 0.00 2.03 0.00 95 1014.8
20260506220058 11 0 0.0 4.8 0.00 2.03 0.00 95 1014.9
20260506214557 12 0 0.0 1.6 0.00 2.01 2.01 95 1014.9
20260506213102 12 0 0.0 1.6 0.00 2.01 2.01 95 1014.7
20260506211554 12 237 0.0 3.2 0.00 2.01 2.01 94 1014.6
20260506210058 12 0 0.0 1.6 0.00 2.01 2.01 94 1014.6
20260506204556 12 0 0.0 0.0 0.00 2.01 2.01 95 1014.6
20260506203116 12 0 0.0 3.2 0.00 2.01 2.01 94 1014.5
20260506201553 12 0 0.0 4.8 0.03 2.01 2.01 94 1014.4
20260506200058 12 0 0.0 4.8 0.05 2.01 2.01 94 1014.4
20260506194554 12 0 0.0 3.2 0.08 4.04 2.01 94 1014.1
20260506193101 12 0 0.0 4.8 0.18 4.01 1.98 94 1014.2